TimeEST,TemperatureF,Dew PointF,Humidity,Sea Level PressureIn,VisibilityMPH,Wind Direction,Wind SpeedMPH,Gust SpeedMPH,PrecipitationIn,Events,Conditions,WindDirDegrees,DateUTC
12:15 AM,45.5,26.2,47,30.09,10.0,NNW,5.8,-,N/A,,Clear,330,2013-11-19 05:15:00
12:35 AM,45.5,25.5,46,30.10,10.0,NW,6.9,-,N/A,,Clear,320,2013-11-19 05:35:00
12:55 AM,45.0,24.3,44,30.10,10.0,NNW,5.8,-,N/A,,Clear,340,2013-11-19 05:55:00
1:15 AM,44.2,24.1,45,30.10,10.0,NNW,4.6,-,N/A,,Clear,330,2013-11-19 06:15:00
1:35 AM,44.6,24.4,45,30.09,10.0,NNW,5.8,-,N/A,,Clear,340,2013-11-19 06:35:00
1:55 AM,42.6,25.3,51,30.09,10.0,West,4.6,-,N/A,,Clear,280,2013-11-19 06:55:00
2:15 AM,42.8,25.7,51,30.09,10.0,West,5.8,-,N/A,,Clear,280,2013-11-19 07:15:00
2:35 AM,42.8,25.5,51,30.09,10.0,NW,6.9,-,N/A,,Clear,310,2013-11-19 07:35:00
2:55 AM,42.1,25.5,52,30.09,10.0,WNW,4.6,-,N/A,,Clear,290,2013-11-19 07:55:00
3:15 AM,41.4,25.3,53,30.09,10.0,WNW,4.6,-,N/A,,Clear,300,2013-11-19 08:15:00
3:35 AM,41.0,25.2,53,30.09,10.0,WNW,4.6,-,N/A,,Clear,300,2013-11-19 08:35:00
3:55 AM,40.8,24.6,53,30.09,10.0,NW,3.5,-,N/A,,Clear,310,2013-11-19 08:55:00
4:15 AM,39.7,25.0,56,30.09,10.0,NW,3.5,-,N/A,,Clear,320,2013-11-19 09:15:00
4:35 AM,39.7,24.8,55,30.09,10.0,Calm,Calm,-,N/A,,Clear,0,2013-11-19 09:35:00
4:55 AM,39.4,25.0,56,30.10,10.0,WNW,5.8,-,N/A,,Clear,300,2013-11-19 09:55:00
5:15 AM,39.4,24.6,56,30.10,10.0,NW,4.6,-,N/A,,Clear,320,2013-11-19 10:15:00
5:35 AM,39.2,24.1,55,30.10,10.0,NW,3.5,-,N/A,,Clear,310,2013-11-19 10:35:00
5:55 AM,33.6,26.2,74,30.11,10.0,Calm,Calm,-,N/A,,Clear,0,2013-11-19 10:55:00
6:15 AM,33.4,27.0,77,30.11,10.0,Calm,Calm,-,N/A,,Clear,0,2013-11-19 11:15:00
6:35 AM,32.0,27.1,82,30.11,10.0,Calm,Calm,-,N/A,,Clear,0,2013-11-19 11:35:00
6:55 AM,32.0,26.8,81,30.12,10.0,Calm,Calm,-,N/A,,Clear,0,2013-11-19 11:55:00
7:15 AM,30.9,27.0,85,30.13,10.0,Calm,Calm,-,N/A,,Clear,0,2013-11-19 12:15:00
7:35 AM,30.9,27.1,86,30.13,10.0,Calm,Calm,-,N/A,,Clear,0,2013-11-19 12:35:00
7:55 AM,30.4,27.1,88,30.13,10.0,Calm,Calm,-,N/A,,Clear,0,2013-11-19 12:55:00
8:15 AM,30.4,27.3,88,30.15,10.0,Calm,Calm,-,N/A,,Clear,0,2013-11-19 13:15:00
8:35 AM,30.9,27.9,88,30.16,10.0,Calm,Calm,-,N/A,,Clear,0,2013-11-19 13:35:00
8:55 AM,33.4,28.8,83,30.16,10.0,Calm,Calm,-,N/A,,Clear,0,2013-11-19 13:55:00
9:15 AM,37.9,27.9,67,30.16,10.0,Calm,Calm,-,N/A,,Clear,0,2013-11-19 14:15:00
9:35 AM,41.0,28.6,61,30.16,10.0,Calm,Calm,-,N/A,,Clear,0,2013-11-19 14:35:00
9:55 AM,43.5,24.6,47,30.17,10.0,Calm,Calm,-,N/A,,Clear,0,2013-11-19 14:55:00
10:15 AM,45.5,26.2,47,30.17,10.0,Calm,Calm,-,N/A,,Clear,0,2013-11-19 15:15:00
10:35 AM,46.6,22.1,38,30.17,10.0,Calm,Calm,-,N/A,,Clear,0,2013-11-19 15:35:00
10:55 AM,47.5,22.3,37,30.17,10.0,Calm,Calm,-,N/A,,Clear,0,2013-11-19 15:55:00
11:15 AM,49.6,22.6,35,30.17,10.0,Calm,Calm,-,N/A,,Clear,0,2013-11-19 16:15:00
11:35 AM,50.0,20.3,31,30.16,10.0,Calm,Calm,-,N/A,,Clear,0,2013-11-19 16:35:00
11:55 AM,50.5,19.8,30,30.15,10.0,Calm,Calm,-,N/A,,Clear,0,2013-11-19 16:55:00
12:15 PM,52.3,19.6,28,30.14,10.0,Calm,Calm,-,N/A,,Clear,0,2013-11-19 17:15:00
12:35 PM,53.1,18.7,26,30.13,10.0,Calm,Calm,-,N/A,,Clear,0,2013-11-19 17:35:00
12:55 PM,53.1,17.2,24,30.13,10.0,Calm,Calm,-,N/A,,Clear,0,2013-11-19 17:55:00
1:15 PM,53.8,16.5,23,30.13,10.0,Calm,Calm,-,N/A,,Clear,0,2013-11-19 18:15:00
1:35 PM,54.3,18.3,24,30.12,10.0,Calm,Calm,-,N/A,,Clear,0,2013-11-19 18:35:00
1:55 PM,55.4,18.9,24,30.11,10.0,NW,3.5,-,N/A,,Clear,320,2013-11-19 18:55:00
2:15 PM,56.5,20.5,25,30.10,10.0,Calm,Calm,-,N/A,,Clear,0,2013-11-19 19:15:00
2:35 PM,55.4,18.9,24,30.09,10.0,NNE,3.5,-,N/A,,Clear,30,2013-11-19 19:35:00
2:55 PM,57.6,19.4,23,30.09,10.0,Calm,Calm,-,N/A,,Clear,0,2013-11-19 19:55:00
3:15 PM,56.7,18.9,23,30.09,10.0,Calm,Calm,-,N/A,,Clear,0,2013-11-19 20:15:00
3:35 PM,56.8,21.2,25,30.09,10.0,Calm,Calm,-,N/A,,Clear,0,2013-11-19 20:35:00
3:55 PM,57.6,21.4,25,30.08,10.0,Calm,Calm,-,N/A,,Clear,0,2013-11-19 20:55:00
4:15 PM,56.5,21.4,26,30.09,10.0,Calm,Calm,-,N/A,,Clear,0,2013-11-19 21:15:00
4:35 PM,54.7,27.5,35,30.09,10.0,South,4.6,-,N/A,,Clear,170,2013-11-19 21:35:00
4:55 PM,54.0,28.0,37,30.10,10.0,South,4.6,-,N/A,,Clear,190,2013-11-19 21:55:00
5:15 PM,52.7,28.4,39,30.11,10.0,Calm,Calm,-,N/A,,Clear,0,2013-11-19 22:15:00
5:35 PM,51.4,28.6,41,30.11,10.0,SSE,3.5,-,N/A,,Clear,150,2013-11-19 22:35:00
5:55 PM,50.7,29.1,43,30.11,10.0,Calm,Calm,-,N/A,,Clear,0,2013-11-19 22:55:00
6:15 PM,50.2,29.7,45,30.12,10.0,SSE,4.6,-,N/A,,Clear,160,2013-11-19 23:15:00
6:35 PM,50.2,27.9,42,30.14,10.0,Calm,Calm,-,N/A,,Clear,0,2013-11-19 23:35:00
6:55 PM,49.5,27.0,42,30.14,10.0,Calm,Calm,-,N/A,,Clear,0,2013-11-19 23:55:00
7:15 PM,49.1,25.2,39,30.16,10.0,Calm,Calm,-,N/A,,Clear,0,2013-11-20 00:15:00
7:35 PM,46.4,27.9,48,30.17,10.0,Calm,Calm,-,N/A,,Clear,0,2013-11-20 00:35:00
7:55 PM,45.9,25.5,45,30.18,10.0,Calm,Calm,-,N/A,,Clear,0,2013-11-20 00:55:00
8:15 PM,43.9,28.4,55,30.20,10.0,Calm,Calm,-,N/A,,Clear,0,2013-11-20 01:15:00
8:35 PM,41.5,29.3,62,30.20,10.0,Calm,Calm,-,N/A,,Clear,0,2013-11-20 01:35:00
8:55 PM,40.8,30.0,65,30.20,10.0,Calm,Calm,-,N/A,,Clear,0,2013-11-20 01:55:00
9:15 PM,41.4,30.0,64,30.20,10.0,Calm,Calm,-,N/A,,Clear,0,2013-11-20 02:15:00
9:35 PM,40.5,31.5,70,30.20,10.0,Calm,Calm,-,N/A,,Clear,0,2013-11-20 02:35:00
9:55 PM,40.5,31.6,71,30.20,10.0,Calm,Calm,-,N/A,,Clear,0,2013-11-20 02:55:00
10:15 PM,39.7,32.0,74,30.19,10.0,Calm,Calm,-,N/A,,Clear,0,2013-11-20 03:15:00
10:35 PM,39.4,31.8,74,30.19,10.0,Calm,Calm,-,N/A,,Clear,0,2013-11-20 03:35:00
10:55 PM,38.1,32.0,79,30.20,10.0,WSW,3.5,-,N/A,,Clear,240,2013-11-20 03:55:00
11:15 PM,37.6,32.0,80,30.20,10.0,Calm,Calm,-,N/A,,Clear,0,2013-11-20 04:15:00
11:35 PM,37.6,32.2,81,30.21,10.0,Calm,Calm,-,N/A,,Clear,0,2013-11-20 04:35:00
11:55 PM,36.7,31.1,80,30.22,10.0,Calm,Calm,-,N/A,,Clear,0,2013-11-20 04:55:00